sat.trackr.live / text

‹ back to catalog

STARLINK-2630

NORAD 48381 · 2021-038AE

PAYLOAD ACTIVE UNKNOWN

§ Identity

Operator
Country
US
Launch date
2021-05-04
Launch site
AFETR
Launch vehicle
Mass (kg)
RCS (m²)

Purposes: comms

External: N2YO · Heavens-Above · Gunter

§ Orbital elements

Epoch: 2026-09-13T00:35:04.195104Z

Period
94.01 min
Inclination
53.1604°
Eccentricity
0.0001370
Mean motion
15.31694972 rev/d
Perigee alt
469.8 km
Apogee alt
471.7 km
Semi-major
6,848.9 km
B*
1.8838e-5
RAAN
196.5434°
Arg perigee
81.2838°
Mean anomaly
278.8318°
Rev number
29,592

§ Raw data

STARLINK-26301 48381U 21038AE  26256.02435411  .00000219  00000+0  18838-4 0  99922 48381  53.1604 196.5434 0001370  81.2838 278.8318 15.31694972295929

JSON: /api/v1/satellites/48381 · /tle

For live sub-satellite position, see the globe view (requires WebGL).

§ Visibility from observer

Set your observer location to see the next 7 days of passes ≥ 10°. The values pass through the URL so the page stays shareable.

No JS? Fill the form by hand. The geolocation button needs JavaScript.